Home   Weather   Sumqayit   Past weeks

Flag for Azerbaijan Past Weather in Sumqayit, Azerbaijan — Yesterday and Last 2 Weeks

Now
82 °F

Sunny.


Feels Like: 86 °F
Forecast: 77 / 88 °F
Wind: 28 mph from Northwest

Location: Baku / Bine Airport

Current Time: Jul 26, 2017 at 11:02:20 am

Latest Report: Jul 26, 2017 at 10:00 am


Visibility: 10 mi

Pressure: 29.68 "Hg

Humidity: 66%

Dew Point: 70 °F

Location of SumqayitLocation

Past Weather in Sumqayit — Graph

°F

Sumqayit Temperature Yesterday

Maximum temperature yesterday: 88 °F (at 2:00 pm)
Minimum temperature yesterday: 75 °F (at 3:00 am)
Average temperature yesterday: 80 °F

High & Low Weather Summary for the Past Weeks

 TemperatureHumidityPressure
High100 °F (Jul 20, 1:00 pm)100% (Jul 23, 5:00 am)30.04 "Hg (Jul 23, 5:00 am)
Low70 °F (Jul 14, 2:30 am)15% (Jul 23, 4:00 pm)29.65 "Hg (Jul 20, 5:30 pm)
Average82 °F57%29.84 "Hg
* Reported Jul 11 9:00 am — Jul 26 9:30 am, Sumqayit. Weather by CustomWeather, © 2017

Note: Actual official high and low records may vary slightly from our data, if they occured in-between our weather recording intervals... More about our weather records

Advertising

Sumqayit Weather History for the Previous 24 Hours

Scroll right to see more
 ConditionsComfort  
Time TempWeatherWind HumidityBarometerVisibility
9:30 am
Wed, Jul 26
82 °FSunny.25 mph66%29.68 "Hg10 mi
9:00 am82 °FSunny.25 mph66%29.71 "Hg10 mi
8:30 am81 °FSunny.23 mph70%29.71 "Hg10 mi
8:00 am81 °FSunny.21 mph74%29.71 "Hg10 mi
7:30 am79 °FSunny.23 mph79%29.71 "Hg10 mi
7:00 am79 °FPassing clouds.21 mph79%29.71 "HgN/A
6:30 am77 °FSunny.18 mph83%29.68 "Hg10 mi
6:00 am77 °FSunny.21 mph83%29.68 "Hg10 mi
5:30 am77 °FSunny.21 mph83%29.68 "Hg10 mi
5:00 am77 °FClear.21 mph83%29.65 "Hg10 mi
4:30 am79 °FClear.21 mph79%29.65 "Hg10 mi
4:00 am77 °FClear.18 mph83%29.65 "Hg10 mi
3:30 am79 °FClear.17 mph79%29.68 "Hg10 mi
3:00 am79 °FClear.20 mph74%29.68 "Hg10 mi
2:30 am79 °FClear.18 mph74%29.68 "Hg10 mi
2:00 am79 °FClear.16 mph74%29.68 "Hg10 mi
1:30 am79 °FClear.17 mph74%29.68 "Hg10 mi
1:00 am79 °FClear.18 mph74%29.68 "Hg10 mi
12:30 am79 °FClear.18 mph74%29.68 "Hg10 mi
12:00 am79 °FClear.16 mph70%29.71 "Hg10 mi
11:30 pm
Tue, Jul 25
79 °FClear.18 mph70%29.71 "Hg10 mi
11:00 pm79 °FClear.17 mph74%29.71 "Hg10 mi
10:30 pm79 °FClear.17 mph79%29.68 "Hg10 mi
10:00 pm79 °FClear.18 mph84%29.68 "Hg10 mi
9:30 pm77 °FPassing clouds.20 mph89%29.68 "HgN/A
9:00 pm79 °FPassing clouds.17 mph84%29.68 "HgN/A
8:30 pm79 °FClear.20 mph79%29.68 "Hg10 mi
8:00 pm79 °FSunny.21 mph79%29.65 "Hg10 mi
7:30 pm81 °FSunny.20 mph74%29.65 "Hg10 mi
7:00 pm81 °FSunny.21 mph74%29.65 "Hg10 mi
6:30 pm81 °FPassing clouds.23 mph74%29.65 "HgN/A
6:00 pm82 °FScattered clouds.22 mph74%29.65 "HgN/A
5:30 pm82 °FScattered clouds.24 mph74%29.65 "HgN/A
5:00 pm82 °FScattered clouds.23 mph70%29.65 "HgN/A
4:00 pm84 °FScattered clouds.23 mph66%29.65 "HgN/A
3:30 pm84 °FScattered clouds.22 mph70%29.68 "HgN/A
3:00 pm84 °FPassing clouds.22 mph66%29.68 "HgN/A
2:30 pm86 °FSunny.21 mph62%29.68 "Hg10 mi
2:00 pm88 °FPassing clouds.21 mph59%29.68 "HgN/A
1:30 pm86 °FPassing clouds.21 mph59%29.68 "HgN/A
1:00 pm86 °FPassing clouds.23 mph66%29.68 "HgN/A
12:30 pm84 °FScattered clouds.22 mph62%29.68 "HgN/A
11:30 am84 °FScattered clouds.23 mph70%29.71 "HgN/A
11:00 am82 °FScattered clouds.22 mph70%29.71 "HgN/A
Weather by CustomWeather, © 2017

See weather overviewHow to use our weather pages